FW0321 Weather Reports


time (UTC)temp
C
wind
direction
speed
KPH
gust
KPH
rain 1hr
cm
rain 24hr
cm
rain mn
cm
humidity
%
barometer
mb
20260507140557 5 248 19.3 35.4 0.00 0.30 0.05 82 1017.3
20260507135657 5 249 17.7 35.4 0.00 0.30 0.05 82 1017.1
20260507133857 6 248 16.1 29.0 0.00 0.30 0.05 79 1016.9
20260507132957 6 244 16.1 24.1 0.00 0.30 0.05 79 1016.8
20260507132057 6 246 14.5 25.7 0.00 0.30 0.05 78 1016.8
20260507131157 6 242 12.9 19.3 0.00 0.30 0.05 80 1016.8
20260507130257 5 244 16.1 24.1 0.00 0.30 0.05 81 1016.7
20260507124457 6 244 12.9 20.9 0.00 0.30 0.05 79 1016.8
20260507123556 6 244 12.9 22.5 0.00 0.30 0.05 79 1016.9
20260507121757 5 245 14.5 27.4 0.00 0.30 0.05 82 1016.7
20260507115056 5 250 16.1 30.6 0.00 0.30 0.05 85 1016.6
20260507114157 4 249 16.1 29.0 0.00 0.30 0.05 86 1016.5
20260507113256 4 248 14.5 27.4 0.00 0.30 0.05 87 1016.4
20260507112356 4 257 8.0 16.1 0.00 0.30 0.05 87 1016.4
20260507111456 3 250 14.5 29.0 0.00 0.30 0.05 86 1016.2
20260507110556 4 248 19.3 32.2 0.00 0.30 0.05 85 1016.0
20260507105656 5 251 17.7 30.6 0.00 0.30 0.05 84 1015.8
20260507104756 5 256 17.7 29.0 0.00 0.30 0.05 83 1015.8
20260507103856 5 246 14.5 24.1 0.00 0.30 0.05 83 1015.7
20260507102957 5 245 11.3 19.3 0.00 0.30 0.05 82 1015.6
20260507102056 5 246 12.9 22.5 0.00 0.30 0.05 82 1015.6
20260507095356 5 247 17.7 29.0 0.00 0.30 0.05 83 1015.5
20260507094456 5 247 14.5 25.7 0.00 0.30 0.05 83 1015.4
20260507093556 5 246 14.5 27.4 0.00 0.30 0.05 82 1015.2
20260507092656 5 250 14.5 22.5 0.00 0.30 0.05 82 1015.2
20260507090856 5 245 12.9 24.1 0.00 0.30 0.05 81 1015.0
20260507085956 5 250 12.9 19.3 0.00 0.30 0.05 80 1014.9
20260507085056 5 252 11.3 19.3 0.00 0.30 0.05 80 1014.9
20260507084156 5 248 9.7 17.7 0.00 0.30 0.05 81 1014.8
20260507083256 5 245 11.3 19.3 0.00 0.30 0.05 84 1014.7
20260507082356 4 254 16.1 24.1 0.00 0.30 0.05 83 1014.6
20260507081458 4 253 14.5 29.0 0.00 0.30 0.05 84 1014.6
20260507080556 4 245 9.7 22.5 0.00 0.30 0.05 83 1014.6
20260507075656 5 236 4.8 11.3 0.00 0.30 0.05 79 1014.5
20260507074756 5 218 3.2 8.0 0.00 0.30 0.05 79 1014.5
20260507073856 5 229 1.6 8.0 0.00 0.30 0.05 80 1014.4
20260507072957 5 221 3.2 8.0 0.00 0.30 0.05 81 1014.4
20260507072056 5 235 3.2 8.0 0.00 0.30 0.05 83 1014.2
20260507071156 5 253 1.6 6.4 0.00 0.30 0.05 85 1014.2
20260507070256 4 270 0.0 4.8 0.00 0.30 0.05 86 1014.1
20260507064457 3 280 0.0 4.8 0.00 0.30 0.05 88 1013.8
20260507063556 3 293 1.6 4.8 0.00 0.30 0.05 88 1013.9
20260507062657 3 314 0.0 3.2 0.00 0.30 0.05 89 1013.8
20260507061756 3 314 0.0 1.6 0.00 0.30 0.05 89 1013.8
20260507060856 3 313 1.6 4.8 0.00 0.30 0.05 89 1013.7
20260507055056 3 310 3.2 6.4 0.00 0.30 0.05 90 1013.7
20260507054157 3 293 1.6 8.0 0.00 0.30 0.05 90 1013.6
20260507052356 3 73 1.6 3.2 0.00 0.30 0.05 91 1013.4
20260507051456 3 74 1.6 3.2 0.00 0.30 0.05 91 1013.4
20260507050556 3 73 3.2 6.4 0.00 0.30 0.05 92 1013.3
20260507045656 3 73 1.6 8.0 0.00 0.30 0.05 92 1013.3
20260507044756 2 72 1.6 4.8 0.00 0.30 0.05 93 1013.4
20260507042956 2 72 3.2 6.4 0.00 0.30 0.05 93 1013.3
20260507042056 2 73 3.2 6.4 0.00 0.30 0.05 93 1013.1
20260507040255 2 74 1.6 4.8 0.00 0.30 0.05 93 1013.0
20260507035355 2 74 1.6 4.8 0.00 0.30 0.05 94 1012.9
20260507034456 2 73 3.2 4.8 0.00 0.30 0.05 94 1012.8
20260507033555 2 73 3.2 4.8 0.00 0.30 0.05 94 1012.9
20260507032655 2 73 3.2 4.8 0.00 0.30 0.05 94 1012.8
20260507031756 2 74 1.6 4.8 0.00 0.30 0.05 94 1012.7
20260507030855 2 73 3.2 4.8 0.00 0.30 0.05 94 1012.7
20260507025955 2 73 3.2 6.4 0.00 0.30 0.05 94 1012.6
20260507025055 1 74 4.8 8.0 0.00 0.30 0.05 94 1012.6
20260507024155 1 76 3.2 4.8 0.00 0.30 0.05 94 1012.6
20260507023255 1 76 1.6 4.8 0.00 0.30 0.05 94 1012.7
20260507022355 2 76 3.2 6.4 0.00 0.30 0.05 94 1012.6
20260507021455 2 69 3.2 8.0 0.00 0.30 0.05 94 1012.5
20260507020555 1 64 1.6 4.8 0.00 0.30 0.05 94 1012.5
20260507015655 1 76 1.6 3.2 0.00 0.30 0.05 94 1012.5
20260507014755 1 76 1.6 4.8 0.00 0.30 0.05 94 1012.5
20260507013855 2 73 3.2 6.4 0.00 0.30 0.05 94 1012.4
20260507012955 2 70 0.0 3.2 0.00 0.30 0.05 94 1012.5
20260507010255 1 74 0.0 6.4 0.00 0.30 0.05 94 1012.4
20260507005355 1 0 0.0 0.0 0.00 0.30 0.05 93 1012.4
20260507004455 1 72 0.0 6.4 0.00 0.30 0.05 93 1012.3
20260507003555 1 59 1.6 6.4 0.00 0.30 0.05 93 1012.3
20260507002655 2 41 0.0 3.2 0.00 0.30 0.05 93 1012.3
20260507001755 1 0 0.0 0.0 0.00 0.30 0.05 93 1012.2
20260507000855 1 0 0.0 0.0 0.00 0.30 0.05 93 1012.3
20260506235955 1 36 0.0 1.6 0.00 0.30 0.05 93 1012.2
20260506235055 1 35 0.0 3.2 0.00 0.30 0.05 93 1012.0
20260506234155 1 35 1.6 4.8 0.00 0.30 0.05 93 1011.9
20260506232355 2 315 1.6 4.8 0.03 0.30 0.05 92 1012.0
20260506230555 2 310 0.0 1.6 0.05 0.30 0.05 92 1011.9
20260506225655 2 311 1.6 3.2 0.05 0.30 0.05 92 1012.0
20260506224755 2 310 0.0 3.2 0.05 0.30 0.05 92 1011.9
20260506223855 2 0 0.0 0.0 0.05 0.30 0.05 92 1011.8
20260506222055 2 300 3.2 11.3 0.05 0.28 0.05 91 1011.7
20260506221156 2 285 4.8 12.9 0.05 0.28 0.05 91 1011.9
20260506220255 2 207 3.2 12.9 0.03 0.23 0.00 92 1011.9
20260506215356 2 207 3.2 9.7 0.03 0.23 0.81 92 1011.7
20260506214455 2 213 1.6 9.7 0.05 0.23 0.81 92 1011.6
20260506213555 2 219 0.0 3.2 0.05 0.23 0.81 92 1011.5
20260506212655 2 219 0.0 3.2 0.05 0.23 0.81 91 1011.4
20260506211755 2 218 1.6 8.0 0.03 0.23 0.81 91 1011.4
20260506210855 2 222 1.6 6.4 0.03 0.23 0.79 91 1011.5
20260506205056 2 273 3.2 9.7 0.03 0.23 0.79 92 1011.4
20260506204155 2 240 1.6 8.0 0.00 0.20 0.79 92 1011.3
20260506203255 2 281 1.6 4.8 0.03 0.20 0.79 91 1011.1
20260506202354 2 280 1.6 4.8 0.03 0.20 0.79 91 1011.1
20260506201455 2 278 1.6 4.8 0.03 0.20 0.79 92 1011.1
20260506200555 3 271 1.6 11.3 0.03 0.20 0.79 92 1011.1
20260506195655 3 241 1.6 9.7 0.03 0.20 0.79 92 1011.0
20260506194756 3 205 3.2 12.9 0.03 0.20 0.79 92 1011.0
20260506193855 3 210 0.0 4.8 0.00 0.18 0.79 92 1011.0
20260506192955 3 194 0.0 4.8 0.00 0.18 0.76 92 1010.9
20260506192055 3 193 1.6 9.7 0.00 0.18 0.76 92 1010.9
20260506191156 3 170 1.6 11.3 0.00 0.18 0.76 92 1010.9
20260506190255 3 55 1.6 6.4 0.00 0.18 0.76 92 1010.8
20260506184454 3 65 3.2 6.4 0.03 0.18 0.76 92 1010.6
20260506183554 3 66 1.6 4.8 0.03 0.18 0.76 92 1010.5
20260506182654 3 65 1.6 3.2 0.03 0.18 0.76 91 1010.5
20260506181754 3 65 1.6 6.4 0.03 0.18 0.76 91 1010.5
20260506180854 3 63 1.6 6.4 0.03 0.18 0.76 91 1010.4
20260506175954 3 62 1.6 4.8 0.05 0.18 0.76 91 1010.4
20260506174154 3 60 1.6 4.8 0.03 0.15 0.74 91 1010.3
20260506172354 3 55 3.2 6.4 0.05 0.15 0.74 90 1010.3
20260506171454 3 56 1.6 4.8 0.08 0.15 0.74 90 1010.1
20260506170554 3 51 1.6 4.8 0.10 0.15 0.74 89 1010.0
20260506165654 3 12 1.6 6.4 0.10 0.15 0.71 89 1009.9
20260506164754 3 323 1.6 4.8 0.13 0.15 0.71 89 1010.0
20260506163856 3 320 1.6 3.2 0.15 0.15 0.71 88 1010.0
20260506162954 3 319 0.0 3.2 0.15 0.15 0.71 88 1010.0
20260506161156 2 318 3.2 6.4 0.05 0.05 0.64 85 1010.1
20260506160254 3 324 6.4 14.5 0.05 0.05 0.64 83 1010.0
20260506155354 3 324 4.8 11.3 0.03 0.03 0.61 81 1009.9
20260506154454 4 353 3.2 6.4 0.03 0.03 0.61 81 1009.9
20260506153556 4 339 4.8 14.5 0.00 0.00 0.58 80 1009.7
20260506152655 4 288 4.8 14.5 0.00 0.00 0.58 79 1009.9
20260506151754 4 286 4.8 9.7 0.00 0.00 0.58 79 1009.8
20260506150854 4 304 4.8 11.3 0.00 0.00 0.58 79 1009.7
20260506145955 5 286 8.0 17.7 0.00 0.00 0.58 78 1009.7
20260506145054 5 281 9.7 20.9 0.00 0.00 0.58 76 1009.6
20260506144154 6 272 6.4 20.9 0.00 0.00 0.58 76 1009.6
20260506143254 6 268 6.4 14.5 0.00 0.00 0.58 76 1009.6
20260506142355 6 270 6.4 14.5 0.00 0.00 0.58 75 1009.5